Location: ??
(35.5090°N, 139.6783°E)
Time: 19:06:53
(UTC+00:00)

NOSS 3-4 (A) - Pass Details

Date: 08 November 2025
Orbit: 771 x 1440 km, 63.4° (Epoch: 11 November)

Event Time Altitude Azimuth Distance (km) Brightness Sun altitude
Rises 08:17:50 0° 335° (NNW) 3,772 6.7 -8.2°
Reaches altitude 10° 08:20:32 10° 344° (NNW) 2,915 6.0 -8.7°
Maximum altitude 08:27:01 38° 51° (NE) 1,756 4.4 -10.0°
Drops below altitude 10° 08:34:25 10° 117° (ESE) 3,347 5.8 -11.5°
Sets 08:37:42 0° 125° (SE) 4,393 6.5 -12.1°
